Location: Mentone
(34.5413°N, 85.5351°W)
Time: 08:02:04
(UTC-05:00)

A-11 Canister half - Visible Passes

Search period start: 30 July 2016 00:00
Search period end: 09 August 2016 00:00
Orbit: 1525 x 1684 km, 47.3° (Epoch: 30 July)

Date Brightness Start Highest point End Pass type
(mag) Time Alt. Az. Time Alt. Az. Time Alt. Az.
30 Jul 10.7 00:55:34 15° ESE 00:55:34 15° ESE 00:58:37 10° E visible
30 Jul 9.1 02:53:52 52° SSW 02:56:30 69° SE 03:06:29 10° ENE visible
30 Jul 9.7 04:52:13 10° W 05:02:06 53° NNW 05:11:48 10° NE visible
31 Jul 10.9 00:35:01 13° E 00:35:01 13° E 00:36:37 10° E visible
31 Jul 9.1 02:33:19 59° S 02:34:54 65° SE 02:44:52 10° ENE visible
31 Jul 9.6 04:31:36 14° W 04:40:25 54° NNW 04:50:11 10° NE visible
01 Aug 11.0 00:14:27 10° E 00:14:27 10° E 00:14:32 10° E visible
01 Aug 9.1 02:12:43 61° SSE 02:13:19 62° SE 02:23:15 10° ENE visible
01 Aug 9.6 04:11:01 18° W 04:18:45 56° NNW 04:28:34 10° NE visible
02 Aug 9.2 01:52:06 59° SE 01:52:06 59° SE 02:01:36 10° ENE visible
02 Aug 9.5 03:50:23 23° W 03:57:05 58° NNW 04:06:58 10° NE visible
03 Aug 9.4 01:31:26 53° ESE 01:31:26 53° ESE 01:39:58 10° ENE visible
03 Aug 9.4 03:29:43 29° W 03:35:25 59° NNW 03:45:21 10° NE visible
04 Aug 9.6 01:10:44 47° E 01:10:44 47° E 01:18:18 10° ENE visible
04 Aug 9.4 03:09:00 35° W 03:13:45 61° NNW 03:23:44 10° NE visible
04 Aug 10.2 05:11:19 10° WNW 05:20:40 39° N 05:29:50 10° ENE visible
05 Aug 9.8 00:49:59 41° E 00:49:59 41° E 00:56:38 10° ENE visible
05 Aug 9.3 02:48:16 41° W 02:52:06 63° NNW 03:02:08 10° NE visible
05 Aug 10.2 04:49:35 10° WNW 04:58:57 40° N 05:08:10 10° ENE visible
06 Aug 9.9 00:29:12 35° E 00:29:12 35° E 00:34:58 10° ENE visible
06 Aug 9.3 02:27:28 48° W 02:30:26 66° NNW 02:40:31 10° NE visible
06 Aug 10.1 04:27:50 10° WNW 04:37:15 40° N 04:46:30 10° ENE visible
07 Aug 10.1 00:08:22 30° E 00:08:22 30° E 00:13:18 10° ENE visible
07 Aug 9.2 02:06:38 56° W 02:08:47 68° NNW 02:18:54 10° NE visible
07 Aug 10.1 04:06:07 10° WNW 04:15:32 40° N 04:24:49 10° ENE visible
07 Aug 10.3 23:47:29 26° E 23:47:29 26° E 23:51:38 10° ENE visible
08 Aug 9.2 01:45:45 64° WNW 01:47:08 70° NNW 01:57:18 10° NE visible
08 Aug 10.1 03:44:23 10° WNW 03:53:49 41° N 04:03:09 10° ENE visible
08 Aug 10.4 23:26:33 22° ENE 23:26:33 22° ENE 23:29:56 10° ENE visible
